Location: NCO
(38.4404°N, 77.1340°W)
Time: 13:28:48
(UTC-05:00)

ISS - Visible Passes

Search period start: 16 November 2018 00:00
Search period end: 26 November 2018 00:00
Orbit: 401 x 408 km, 51.6° (Epoch: 16 November)

Date Brightness Start Highest point End Pass type
(mag) Time Alt. Az. Time Alt. Az. Time Alt. Az.
16 Nov -0.5 04:16:50 12° ESE 04:16:50 12° ESE 04:17:05 10° ESE visible
16 Nov -1.7 05:49:33 13° WSW 05:50:01 13° SW 05:51:39 10° SSW visible
17 Nov -1.3 05:00:07 15° S 05:00:07 15° S 05:00:52 10° S visible
21 Nov -1.5 18:07:14 10° SSE 18:08:08 12° SE 18:08:08 12° SE visible
22 Nov -2.2 18:49:22 10° SW 18:51:13 31° SSW 18:51:13 31° SSW visible
23 Nov -2.8 17:57:34 10° SSW 18:00:29 31° SE 18:01:31 25° E visible
23 Nov -0.2 19:34:07 10° W 19:34:12 10° W 19:34:12 10° W visible
24 Nov -2.9 18:41:30 10° WSW 18:44:23 45° NW 18:44:23 45° NW visible
25 Nov -3.9 17:49:10 10° SW 17:52:25 87° SE 17:54:29 21° NE visible
